CAPE
11 34 11 0 0 0 0 0 4 0 0 0 0 0 0 0 0 0 0 0 0 0 0 0 0 0 0 2 0 0 3 0 0 0 0 0 0 0 7 23 4 0 1 0
40 28 4 2 0 0 0 0 0 0 0 0 0 0 0 0 0 0 0 0 0 0 0 0 0 0 0 0 8 0 0 0 0 0 0 0 0 0 0 15 8 27 0 0
23 10 9 1 0 0 0 0 0 0 0 0 0 0 0 0 0 0 0 0 0 0 0 0 1 0 0 0 1 10 0 0 7 0 0 0 0 0 0 28 54 58 0 13
31 29 19 1 0 0 0 0 0 0 0 0 0 0 0 0 0 0 0 0 0 0 0 0 0 0 0 0 0 0 0 0 0 0 0 0 0 8 9 11 48 24 25 16
41 27 20 14 0 0 0 0 0 0 0 0 0 0 0 0 0 0 0 0 0 0 0 0 0 0 0 0 0 0 0 0 0 0 0 0 0 0 8 6 11 70 65 66
28 28 45 44 0 0 0 0 0 0 0 0 0 0 0 0 0 0 0 0 0 0 0 0 0 0 0 0 0 0 0 0 0 0 0 0 4 54 19 4 20 18 5 26
61 50 54 33 11 0 0 0 0 0 0 0 0 0 1 2 0 0 0 0 0 0 0 0 0 0 0 0 0 0 0 0 0 0 0 0 4 1 1 4 14 5 9 16
66 37 51 36 8 0 0 0 0 0 0 0 0 0 0 0 0 0 0 0 0 0 0 0 0 0 0 0 4 33 4 0 1 6 0 0 0 0 5 1 14 23 16 15
46 26 46 44 27 0 0 0 0 0 0 0 0 0 0 0 0 0 0 0 0 0 0 0 0 0 0 0 0 34 6 22 0 0 26 16 7 1 0 0 3 15 17 13
29 17 21 32 31 13 0 0 0 0 0 0 0 0 0 0 0 0 0 5 0 0 0 0 0 0 2 1 1 0 0 0 7 0 3 6 9 1 0 0 7 11 3 6
31 12 9 29 53 22 0 0 0 0 0 0 0 0 0 0 0 0 0 0 0 0 0 7 3 5 0 0 6 10 1 0 1 0 5 0 1 0 4 25 21 18 3 10
43 12 10 9 44 45 9 0 2 17 0 0 0 0 0 0 0 0 0 0 0 0 0 0 0 0 0 0 1 0 5 4 0 5 8 28 9 8 14 28 25 16 11 11
45 30 30 13 51 26 2 0 12 1 0 0 0 0 0 0 0 0 0 0 0 1 0 0 0 0 0 0 1 3 14 0 2 1 6 2 2 2 5 24 20 18 16 16
39 42 26 32 49 24 6 0 6 5 0 0 0 0 0 0 0 0 0 0 0 0 0 1 1 4 0 0 0 0 1 0 0 0 0 0 0 5 5 12 12 7 13 13
57 39 37 59 71 45 9 8 7 10 2 5 0 0 0 0 0 0 0 0 0 0 0 6 1 0 0 0 0 0 4 0 0 0 0 2 0 9 0 4 23 8 10 15
54 22 18 55 73 61 12 6 0 1 2 2 0 0 0 4 0 0 7 1 0 0 0 0 0 0 0 0 0 0 0 0 0 0 0 1 0 0 0 2 1 16 9 6
32 33 55 56 54 12 3 0 0 0 1 1 0 0 1 10 6 1 1 0 5 0 1 0 0 0 3 12 4 1 0 0 0 0 0 0 0 0 0 0 0 5 3 8
21 23 32 64 64 32 9 0 5 2 0 1 0 0 5 10 11 9 0 2 1 2 0 0 0 0 0 5 0 0 0 0 1 0 0 0 0 0 0 0 0 1 4 2
21 26 34 29 11 11 28 34 9 1 1 2 2 0 6 2 9 1 0 0 8 0 1 2 0 0 4 4 0 0 0 0 0 0 0 0 0 0 0 0 0 0 2 1
35 2 0 1 0 53 19 1 11 0 0 4 2 0 7 10 3 0 0 7 4 9 0 0 2 1 1 0 0 0 0 0 0 0 0 0 0 0 0 0 0 0 0 0
6 0 0 0 64 11 8 2 2 0 2 0 0 0 0 12 1 4 0 2 1 2 0 0 1 1 5 0 0 0 0 0 0 0 0 0 0 0 0 0 0 1 0 1
0 4 1 11 12 6 0 0 0 2 0 0 0 0 0 3 0 6 9 6 2 0 2 7 0 3 0 0 0 0 0 0 0 0 0 0 0 0 0 0 0 1 0 0
5 0 3 4 11 5 0 1 3 0 0 3 0 0 0 13 5 6 2 0 0 0 9 0 0 2 0 0 0 0 0 0 0 0 0 0 0 0 0 0 0 0 0 0
1 0 0 0 0 0 0 0 0 0 25 9 0 0 22 10 2 0 0 0 0 0 0 0 1 1 1 0 0 0 0 0 0 0 0 0 0 0 0 0 0 0 0 0
8 2 0 0 0 2 0 23 28 0 21 7 3 0 1 20 1 0 0 3 1 0 0 0 0 1 2 3 1 0 0 0 0 0 0 0 0 0 0 0 0 0 0 0
0 0 0 1 10 1 1 0 0 0 0 6 14 11 1 3 0 3 0 1 0 0 0 0 0 0 0 0 0 0 0 0 0 0 0 0 0 0 0 0 0 0 0 0
0 2 1 0 3 0 0 0 1 0 0 11 2 3 12 0 3 0 0 0 0 0 0 0 0 0 0 0 0 0 0 0 0 0 0 0 0 0 0 0 0 0 0 0
CIN
-1 -0 0 0 0 0 0 0 -112 0 0 0 0 0 0 0 0 0 0 0 0 0 0 0 0 0 0 -32 -1 0 -16 0 0 0 0 0 0 0 -3 0 -5 0 -16 0
-46 -0 -1 -0 0 0 0 0 0 0 0 0 0 0 0 0 0 0 0 0 0 0 0 0 0 0 0 0 -4 -7 0 0 0 0 0 0 0 0 0 -23 -53 -83 -26 0
-0 -1 -1 -0 0 0 0 -6 0 0 0 0 0 0 0 0 0 0 0 0 0 0 0 0 -2 0 0 0 -11 -30 0 0 -7 -0 0 0 0 0 -0 -11 -1 -37 0 -7
-68 -0 -1 0 0 0 0 -15 -17 0 0 0 0 0 0 0 0 0 0 0 0 0 0 -1 0 0 0 0 0 0 0 0 0 0 0 0 0 -7 -1 0 -19 -16 -56 -59
-32 -1 -1 -2 0 0 0 0 0 0 0 0 0 0 0 0 0 0 0 0 0 0 0 0 0 0 0 0 0 0 0 0 0 0 0 0 0 0 0 0 0 -8 -11 -38
-4 -1 -49 -24 0 0 0 0 0 0 0 0 0 0 0 0 0 0 0 0 0 0 0 0 0 0 0 0 0 0 0 0 0 0 0 0 -0 0 0 0 0 0 -0 0
-1 -18 -41 -3 -1 0 0 0 0 0 0 0 0 0 -1 -0 0 0 0 0 0 0 0 0 0 0 0 0 0 0 0 0 0 0 0 -1 -3 -5 0 -0 0 0 0 0
-0 -3 -20 -0 -1 0 0 0 0 0 0 0 0 0 0 0 0 0 0 0 0 0 0 0 0 0 0 0 -71 -80 -56 -35 -2 -4 -1 0 0 0 0 0 0 0 0 0
-0 -9 -0 -0 -0 -0 0 0 0 0 0 0 0 0 0 0 0 0 0 0 0 0 0 0 0 0 0 0 0 -8 -16 -49 -4 -1 -0 -2 0 0 0 0 0 0 0 0
-1 -2 -1 -1 -0 -0 0 0 0 0 0 0 0 0 0 0 0 0 0 -10 0 0 0 0 0 0 -5 -5 -8 -1 0 0 -10 -1 -0 -2 0 0 0 -0 0 0 0 0
-0 -1 -4 -5 0 -1 0 0 0 0 0 0 0 0 0 0 0 0 0 0 -4 0 0 -1 -3 -3 -4 0 -10 -10 -1 0 -1 0 -0 0 0 0 0 0 0 0 0 0
-0 -1 -4 -4 0 -1 -5 0 -7 -14 0 0 0 0 0 0 0 0 0 0 0 0 0 -8 0 0 0 0 -0 0 -9 -10 0 0 -0 0 0 0 0 0 0 0 0 0
-4 -0 -2 -0 0 -1 -0 0 -16 -7 -0 0 0 0 0 0 0 0 0 0 0 -5 0 0 0 0 0 0 -2 -7 -5 -4 -17 -0 0 0 0 0 0 0 0 0 0 0
-2 -5 -2 -2 0 -1 -0 0 -21 -17 -1 0 0 -3 0 0 0 0 0 0 0 0 0 -4 -3 -1 0 0 -1 0 -10 -9 0 0 0 0 0 0 0 0 0 0 0 0
-5 -4 -3 0 -0 -0 -5 -5 -13 -25 -7 -1 0 0 0 -1 0 0 0 0 0 0 -0 -2 -0 0 0 0 0 0 -30 0 0 0 0 0 0 -0 0 0 0 0 0 0
-3 -1 -0 0 0 -1 -6 -2 0 -24 -18 -5 0 0 0 -7 0 -15 -10 -13 0 0 -0 0 0 0 0 0 -0 0 0 0 0 0 -0 -0 0 0 0 -0 0 0 0 0
-0 -0 -0 -0 -1 -11 -8 0 0 -44 -18 -10 0 0 -13 -6 -17 -9 -11 -21 -14 0 -9 0 0 0 -11 -3 -0 -6 0 0 0 0 0 -0 0 0 0 0 0 0 0 -0
0 -0 -0 -2 -1 -2 -16 0 -22 -13 0 -13 0 0 -8 -25 -10 -10 -23 -12 -3 -4 0 0 0 0 0 -2 0 0 0 0 -1 0 0 0 0 0 0 0 0 0 0 0
0 0 0 -4 -3 -0 -0 -21 -27 -19 -20 -1 -1 0 -1 -6 -12 -5 0 0 -5 0 -0 -2 -1 -0 -2 -7 0 0 0 0 0 0 0 0 0 0 0 0 0 0 -0 0
0 -2 0 0 0 -6 -12 -3 -10 0 0 -4 -0 0 -2 0 -0 0 -0 -2 -0 -0 0 -0 -1 -14 0 0 0 0 0 0 0 0 0 0 0 0 0 0 0 -0 -0 -0
-0 0 -0 -0 -7 -14 -5 -0 -0 -0 -0 0 0 0 0 -8 -0 -2 0 -3 -0 -0 0 -0 -0 0 0 0 0 0 0 0 0 0 0 0 0 0 0 -0 0 -0 -0 0
0 -3 -0 -6 -7 -5 -0 -1 0 -1 0 0 0 0 0 -8 0 -11 -31 -11 -11 -0 -13 -7 0 0 -0 0 0 0 0 0 0 0 0 0 0 0 -0 -0 0 0 0 0
-23 0 -8 -10 -5 -0 0 -0 -0 0 0 -12 0 0 -0 -6 -22 -21 -25 -2 -0 0 -14 0 0 0 0 0 0 0 0 0 0 0 0 0 0 0 -0 0 0 -0 0 0
-21 0 0 0 0 0 0 0 0 -2 -7 -31 -2 0 -16 -16 -20 -1 0 0 0 0 0 0 -0 0 0 0 0 0 0 0 0 0 0 0 -0 0 0 0 0 0 0 0
-18 -10 0 0 0 -21 -4 -50 -20 -16 -48 -10 -27 0 -19 -14 -2 -1 -1 -0 -1 0 0 -0 -0 0 0 0 0 0 0 0 0 0 0 0 0 0 0 0 0 0 0 0
0 0 0 0 -11 0 0 0 0 0 0 -11 -19 -8 -1 -4 -0 -0 -1 -1 0 0 0 0 -0 0 0 0 0 0 0 0 0 0 0 0 0 0 0 0 0 0 0 0
-0 0 -0 0 0 0 0 0 0 0 0 -16 -2 -6 -4 0 -3 -0 0 0 0 0 0 0 0 0 0 0 0 0 0 0 0 0 0 0 0 0 0 0 0 0 0 0
Wind_Speed
16 14 13 10 8 3 2 2 2 3 1 3 3 3 4 2 10 4 1 1 1 4 3 2 4 4 4 3 2 6 1 4 9 24 23 11 3 13 6 6 4 8 5 16
16 16 13 11 7 4 2 2 4 3 2 3 2 4 4 2 2 5 5 4 4 3 2 4 3 6 8 10 6 1 4 4 8 15 3 1 16 21 18 13 8 6 8 9
16 14 11 9 7 2 1 2 3 1 1 2 2 2 4 6 2 4 4 1 6 4 5 6 5 9 5 10 10 4 2 4 3 8 17 19 23 29 25 12 6 6 13 13
17 15 12 11 8 4 1 2 1 5 2 2 3 3 2 4 5 3 2 3 7 6 4 5 6 8 10 14 13 7 4 3 11 16 20 22 24 19 20 20 16 9 9 9
16 16 13 11 10 6 2 2 1 4 1 2 6 3 2 6 5 6 4 3 6 6 4 4 6 9 7 5 10 4 7 6 11 22 17 19 19 9 18 14 20 13 15 4
15 15 13 12 10 7 2 3 2 4 3 2 4 4 4 4 2 6 5 4 5 6 6 6 6 6 10 14 16 21 6 4 6 17 16 20 2 11 17 6 20 16 16 16
16 14 14 13 12 11 3 2 2 3 3 2 5 6 1 2 2 2 4 5 4 4 7 7 10 13 17 19 21 15 17 13 7 10 13 4 6 12 18 13 20 15 18 18
17 15 14 13 12 8 0 3 4 3 1 2 6 7 5 3 5 3 2 6 7 3 6 5 7 6 4 5 5 8 4 5 3 2 5 12 17 18 20 13 8 20 17 18
17 15 14 12 10 8 1 2 2 1 3 2 8 7 7 4 1 4 7 7 6 5 1 1 3 3 4 5 9 3 3 10 4 2 5 2 9 22 26 16 5 24 19 17
19 17 15 13 11 10 3 2 1 2 2 4 5 4 3 2 1 1 3 3 3 3 2 1 3 4 5 3 6 6 5 4 2 3 2 4 17 18 17 11 8 20 17 10
20 18 16 14 12 11 4 3 2 3 1 5 6 8 6 6 4 3 4 5 5 3 2 2 3 2 3 4 3 3 3 5 3 4 5 5 21 7 9 8 9 10 13 15
21 20 17 15 13 12 8 0 0 0 2 3 3 5 6 4 2 3 5 2 1 0 2 3 3 3 3 3 2 4 2 3 2 3 4 3 6 7 8 9 8 11 12 12
22 20 18 16 16 15 11 1 1 3 1 4 0 6 8 6 4 4 3 3 4 4 2 3 3 1 2 1 3 1 1 3 2 2 5 3 8 8 10 7 9 10 11 12
22 21 19 17 16 14 12 2 2 1 2 2 5 5 4 9 7 6 5 2 4 2 3 1 1 1 2 2 5 2 4 3 2 2 3 3 6 10 10 9 8 10 9 12
23 21 19 17 16 14 5 1 2 2 3 1 4 7 7 3 7 9 7 5 2 1 1 1 3 3 2 4 2 3 3 6 4 5 2 1 2 5 6 9 8 7 8 9
23 23 20 19 17 14 4 1 3 4 3 2 3 4 3 4 8 6 6 4 3 3 3 3 4 5 3 2 3 2 3 4 3 3 0 1 2 2 3 5 9 1 5 8
22 24 21 20 18 6 3 4 3 7 4 3 3 4 3 5 5 4 2 3 2 3 2 3 3 3 2 2 3 4 7 6 4 4 3 1 3 3 1 4 9 8 8 10
23 20 17 17 17 7 3 2 4 6 3 2 1 4 2 1 2 2 2 2 2 2 3 2 3 2 4 4 2 9 8 6 4 5 1 4 1 5 5 8 8 10 10 10
24 22 19 6 3 2 2 5 9 3 4 2 2 3 3 1 2 3 2 2 1 4 4 4 3 3 4 4 8 9 8 6 5 5 10 9 9 8 8 10 9 8 9 9
27 9 3 3 4 15 7 5 2 3 2 1 3 2 1 1 2 2 3 2 3 2 6 4 4 2 6 10 9 8 9 9 8 4 5 7 8 8 9 10 8 8 8 8
2 4 3 4 17 3 2 3 3 2 3 4 5 6 4 1 2 4 4 4 3 3 4 7 4 3 3 7 9 10 9 10 10 11 10 10 8 8 7 8 8 8 8 8
6 9 8 4 3 3 4 4 2 4 6 4 5 5 6 4 4 3 2 4 2 5 3 3 3 3 8 8 10 11 11 11 12 11 10 9 8 7 7 7 7 7 6 6
5 6 4 3 3 2 8 7 4 3 3 2 3 1 4 1 1 2 3 1 5 2 1 3 3 7 6 7 9 11 10 10 10 10 8 8 7 7 7 6 5 5 5 5
4 5 6 5 4 6 6 5 5 6 3 5 4 2 3 2 3 3 3 5 2 3 1 3 4 8 8 8 8 8 7 6 8 6 6 6 5 4 4 5 5 4 6 6
3 4 5 5 4 2 1 2 3 5 3 5 2 2 2 0 3 3 2 3 3 3 2 3 5 7 7 7 7 7 5 4 4 4 3 2 2 2 2 3 3 4 4 5
3 3 2 4 2 2 0 2 4 4 2 1 2 4 3 3 4 3 5 1 3 2 3 5 7 7 7 6 6 5 3 5 4 3 4 2 1 1 2 1 1 2 3 3
2 2 1 2 2 4 2 3 2 2 1 1 2 3 6 1 2 3 4 2 3 6 6 5 6 6 6 5 4 4 4 4 4 2 1 1 3 2 2 2 3 2 1 3
Wind_Direction
165 167 163 161 179 157 140 256 138 251 71 94 211 186 235 23 125 122 32 111 273 231 312 325 282 294 300 74 338 330 222 231 292 291 292 294 203 324 268 301 348 310 259 271
153 164 159 163 191 183 4 223 124 290 59 132 263 262 117 63 188 170 183 202 198 52 20 313 289 310 311 323 4 97 280 313 310 317 308 163 319 315 313 330 255 235 258 265
167 162 155 166 185 189 257 294 122 77 20 305 329 309 182 155 103 2 19 4 352 343 277 265 282 310 309 339 349 268 160 186 212 280 274 290 302 311 313 325 267 278 256 343
170 168 166 173 178 180 236 317 213 169 175 276 249 302 230 227 152 177 17 245 223 236 253 283 292 326 332 335 306 346 0 281 287 279 281 289 291 326 338 296 271 266 322 334
167 166 170 178 173 166 271 119 57 357 45 196 171 243 183 272 216 157 181 222 274 319 340 355 331 337 330 285 304 308 298 265 301 293 297 293 312 314 334 4 20 356 343 349
166 165 167 170 170 190 236 293 335 86 316 228 136 208 181 291 22 19 45 27 348 334 329 338 301 278 280 267 269 277 255 250 286 287 305 314 6 349 353 333 33 18 356 327
171 173 172 171 180 200 10 357 331 85 285 316 189 240 206 250 171 144 360 26 17 318 7 345 307 278 265 258 258 248 255 258 248 280 304 322 24 347 338 354 39 19 345 352
173 171 172 176 187 198 342 328 23 21 312 308 312 261 165 95 21 8 264 257 239 72 29 345 318 305 310 268 63 20 46 28 317 249 315 270 34 336 332 326 51 11 344 346
174 173 169 178 180 185 148 308 288 3 92 20 347 325 125 119 234 283 248 245 115 86 93 77 268 297 272 324 337 10 353 222 170 350 284 310 355 327 320 315 77 357 351 344
175 173 169 168 178 181 157 269 55 36 64 302 335 28 22 46 153 232 349 11 114 125 121 326 237 245 258 356 337 338 331 352 49 286 286 102 355 338 324 49 328 338 340 345
177 173 171 162 177 181 148 263 17 101 17 317 17 10 12 348 30 57 339 19 3 14 48 195 267 332 329 0 9 6 25 331 339 330 352 351 8 9 38 318 313 337 344 3
180 176 173 172 183 180 171 298 304 39 112 258 352 287 277 269 35 86 341 145 276 140 46 34 337 337 344 327 298 341 74 132 230 12 40 63 33 29 354 348 331 346 347 7
177 175 175 179 182 180 175 138 94 75 90 306 264 243 251 230 199 155 118 327 25 31 130 165 241 268 71 308 293 22 7 27 91 175 128 138 62 30 11 6 352 350 355 12
176 173 176 179 176 179 177 144 199 81 179 121 287 340 238 204 181 163 181 230 8 87 53 69 221 229 312 265 251 186 197 54 252 255 43 346 83 25 1 355 7 2 6 24
174 171 169 173 169 169 146 157 262 251 107 304 286 306 269 246 154 180 190 193 194 149 359 83 239 249 0 280 293 258 163 192 144 217 119 207 10 53 352 348 355 13 11 18
168 161 173 171 155 144 108 18 267 219 165 80 325 294 266 207 162 189 185 176 176 146 144 230 249 239 142 253 261 208 83 81 91 137 232 267 304 155 19 350 351 45 41 37
170 165 167 156 153 128 133 184 243 165 114 89 324 292 313 201 148 179 142 164 147 133 197 226 228 263 284 228 241 179 131 119 140 193 184 30 285 244 354 9 27 45 59 55
141 144 148 151 143 95 353 315 16 101 110 93 181 274 25 348 118 61 74 112 121 225 210 268 224 269 193 250 81 114 125 139 158 28 171 172 203 52 75 62 35 42 41 38
137 144 134 101 62 132 189 92 61 60 115 178 160 200 257 81 107 94 27 126 202 221 203 215 144 228 223 185 107 87 55 73 40 5 54 42 52 36 25 61 41 41 32 31
132 103 105 122 191 126 130 19 64 17 306 240 224 232 210 294 114 243 136 183 221 231 222 161 176 148 73 83 69 68 62 60 36 53 44 47 43 21 25 45 41 36 29 22
98 134 101 113 141 87 70 139 156 198 230 214 220 182 169 214 159 184 188 187 227 246 231 179 201 123 102 86 78 61 50 70 51 74 66 64 49 22 29 33 30 19 32 14
156 111 101 120 150 94 145 193 225 192 222 214 173 205 171 154 249 139 239 195 108 250 146 221 116 100 109 96 81 67 49 56 64 57 62 68 56 31 44 38 23 21 20 0
135 73 94 130 211 120 178 187 213 190 226 193 133 72 147 89 147 81 65 212 235 324 251 73 65 111 93 92 88 75 61 62 62 60 52 65 69 51 39 30 25 15 43 13
97 118 141 191 200 220 195 187 175 228 146 119 117 95 137 175 72 140 229 238 47 259 50 70 135 119 103 91 96 93 83 75 90 73 65 44 46 74 43 28 20 31 30 16
95 109 190 200 205 72 353 263 58 356 111 112 76 68 111 75 112 201 250 326 229 36 88 84 107 108 106 105 115 121 126 119 122 134 125 101 32 97 54 15 23 32 30 32
78 54 18 338 117 101 169 62 80 13 325 185 113 140 166 214 185 185 215 265 52 78 88 113 105 97 100 101 100 105 102 112 107 97 149 159 53 96 169 354 53 343 42 35
122 110 94 345 5 49 53 38 36 303 25 186 163 164 210 163 214 106 24 48 104 102 86 90 106 119 130 138 132 135 120 103 132 126 79 200 228 283 108 173 244 242 248 178